Regional Weather Roundup
Issued by NWS

Home | Current Version | Previous Version | Text Only | Print | Product List | Glossary Off
Versions: 1 2 3 4 5 6 7 8 9 10 11 12 13 14 15 16 17 18 19 20 21 22 23 24 25 26 27 28 29 30 31 32 33 34 35 36 37 38 39 40 41 42 43 44 45 46 47 48 49 50

000
ASUS43 KOAX 300402
RWRNE

WEATHER ROUNDUP FOR NEBRASKA
NATIONAL WEATHER SERVICE OMAHA NE
1100 PM CDT SAT AUG 29 2015

NOTES: SATELLITE DATA IS BEING USED TO AUGMENT CLOUD COVER ABOVE
       12000 FEET.
       "FAIR" INDICATES FEW OR NO CLOUDS BELOW 12,000 FEET WITH NO
       SIGNIFICANT WEATHER AND/OR OBSTRUCTIONS TO VISIBILITY.

  * THESE STATIONS DO NOT REPORT WEATHER SUCH AS RAIN...SNOW OR FOG.

NEZ001>004-019>022-054>056-300500-
NEBRASKA PANHANDLE

CITY           SKY/WX    TMP DP  RH WIND       PRES   REMARKS
SCOTTSBLUFF    CLEAR     65  49  56 E9        30.04S
ALLIANCE       CLEAR     68  45  43 S12       30.04F
CHADRON        PTCLDY    81  40  23 S18       29.96S HAZE
KIMBALL        CLEAR     63  41  44 S9        30.11S
SIDNEY         CLEAR     67  43  41 S9        30.11S
$$

NEZ057>060-069>072-079>082-300500-
SOUTHWEST NEBRASKA

CITY           SKY/WX    TMP DP  RH WIND       PRES   REMARKS
NORTH PLATTE   CLEAR     63  60  90 SE6       30.05F
IMPERIAL       CLEAR     67  51  56 SE12      30.08S
LEXINGTON      CLEAR     67  62  82 SE5       30.06F
MCCOOK         CLEAR     71  55  56 S7        30.07S
$$

NEZ005>010-023>029-035>040-094-300500-
NORTH CENTRAL NEBRASKA

CITY           SKY/WX    TMP DP  RH WIND       PRES   REMARKS
VALENTINE      CLEAR     76  58  53 S18       29.98F
AINSWORTH      CLEAR     71  61  69 S13       30.01F
BROKEN BOW     CLEAR     69  64  84 S5        30.05F
O`NEILL        PTCLDY    69  66  92 S8        30.02F
ORD            CLEAR     64  61  90 SE3       30.03S
$$

NEZ041-046>049-061>064-073>077-083>087-300500-
SOUTH CENTRAL NEBRASKA

CITY           SKY/WX    TMP DP  RH WIND       PRES   REMARKS
GRAND ISLAND   CLEAR     65  62  90 S6        30.07R
AURORA         CLEAR     64  64 100 S6        30.07R
HASTINGS       CLEAR     66  62  87 S5        30.07R
KEARNEY *      CLEAR     64  57  77 S8        30.06S
YORK           MOCLDY    64  63  94 S8        30.07R
$$

NEZ011>018-030>034-042>045-300500-
NORTHEAST NEBRASKA

CITY           SKY/WX    TMP DP  RH WIND       PRES   REMARKS
NORFOLK        CLEAR     64  63  96 SE8       30.04S
ALBION         CLEAR     63  61  92 SE6       30.05S
BLAIR          CLOUDY    64  61  93 S3        30.06S
COLUMBUS *     CLEAR    N/A N/A N/A SE5       30.05S
FREMONT        CLEAR     62  60  93 SE3       30.06S
TEKAMAH        CLOUDY    61  61 100 S3        30.05S
$$

NEZ050>053-065>068-078-088>093-300500-
SOUTHEAST NEBRASKA

CITY           SKY/WX    TMP DP  RH WIND       PRES   REMARKS
LINCOLN        CLOUDY    64  61  90 S12       30.07R
OMAHA EPPLEY   CLOUDY    68  64  87 SE7       30.05F
BEATRICE       CLOUDY    63  61  91 SE7       30.06F
FALLS CITY     CLEAR     61  60  97 W3        30.05F
NEBRASKA CITY  MOCLDY    64  63  97 CALM      30.07S
PLATTSMOUTH    CLOUDY    65  62  87 CALM      30.06S
$$

NEZ044-045-051>053-067-300500-
OMAHA AREA

CITY           SKY/WX    TMP DP  RH WIND       PRES   REMARKS
OMAHA EPPLEY   CLOUDY    68  64  87 SE7       30.05F
BLAIR          CLOUDY    64  61  93 S3        30.06S
FREMONT        CLEAR     62  60  93 SE3       30.06S
OFFUTT AFB     CLOUDY    66  64  93 SE2       30.05S
PLATTSMOUTH    CLOUDY    65  62  87 CALM      30.06S
WAHOO          FAIR      59  58  97 S5        30.06S FOG
$$




USA.gov is the U.S. government's official web portal to all federal, state and local government web resources and services.